[[{"header":{"parameterUnit":"m.s-1","parameterCategory":2,"la1":30.2991,"la2":30.254,"lo1":-89.0895,"lo2":-89.0444,"dy":0.0017,"dx":0.0017,"nx":28,"ny":28,"refTime":"2023-08-10T09:00:00:Z","depth":"0","parameterNumber":2,"parameterNumberName":"U-component_of_CURRENTS"},"data":[0,0,0,0,0,0,0,0,0,0,0,0,0,0,0,0,0,0,0,0,0,0,0,0,0,0,0,0,0,0,0,0,0,0,0,0,0,0,0,0,0,0,0,0,0,0,0,0,0,0,0,0,0,0,0,0,0,0,-0.0215,-0.0212,0,-0.0107,-0.0108,-0.0108,-0.0094,-0.0093,-0.0092,-0.0091,-0.0203,-0.0207,-0.0211,0,0,0,0,0,0,0,0,0,0,0,0,0,-0.027,-0.0272,-0.0215,-0.0212,-0.0208,-0.0107,-0.0108,-0.0109,-0.0095,-0.0093,-0.0092,-0.009,-0.0202,-0.0207,-0.0212,0,0,0,0,0,0,0,0,0,0,0,0,0,-0.0237,-0.0273,-0.0216,-0.017,-0.0163,-0.0107,-0.0108,-0.0109,-0.0095,-0.0093,-0.0091,-0.0089,-0.02,-0.0206,-0.0212,-0.0288,0,0,-0.0231,-0.0234,0,0,0,0,0,0,0,0,-0.0239,-0.0238,-0.0181,-0.0173,-0.0165,-0.009,-0.0166,-0.0171,-0.0095,-0.0147,-0.0091,-0.0088,-0.0171,-0.0179,-0.0196,-0.0294,-0.0298,-0.0232,-0.0236,-0.0238,-0.024,0,0,0,0,0,0,0,-0.0242,-0.0241,-0.0198,-0.0176,-0.0167,-0.0105,-0.0103,-0.0168,-0.0195,-0.0143,-0.0135,-0.0084,-0.0171,-0.019,-0.0198,-0.03,-0.0232,-0.0237,-0.0241,-0.0243,-0.0333,-0.0332,0,0,0,0,0,0,-0.0215,-0.0245,-0.0201,-0.0192,-0.017,-0.0105,-0.0103,-0.0137,-0.0189,-0.0186,-0.0086,-0.0083,-0.018,-0.0191,-0.0202,-0.02,-0.0238,-0.0244,-0.0248,-0.0335,-0.0333,-0.0331,0,0,0,0,0,0,-0.0218,-0.0216,-0.0205,-0.019,-0.0181,-0.0104,-0.0143,-0.0135,-0.0149,-0.0138,-0.0145,-0.0103,-0.0179,-0.0194,-0.0251,-0.0208,-0.0247,-0.0253,-0.0336,-0.0334,-0.0332,-0.0258,0,0,0,0,0,0,-0.0222,-0.022,-0.0221,-0.0192,-0.018,-0.0191,-0.0142,-0.0133,-0.0107,-0.0105,-0.0156,-0.0163,-0.0179,-0.0241,-0.0257,-0.0217,-0.0257,-0.0338,-0.0335,-0.0333,-0.0262,-0.0253,-0.0246,0,0,0,0,0,-0.0226,-0.0246,-0.0225,-0.0214,-0.0193,-0.019,-0.0184,-0.0134,-0.011,-0.0141,-0.0149,-0.0162,-0.0233,-0.0248,-0.0266,-0.0226,-0.0339,-0.0336,-0.0333,-0.0265,-0.0255,-0.0246,0,0,0,0,0,0,-0.0272,-0.0242,-0.0219,-0.023,-0.0209,-0.0178,-0.0166,-0.0145,-0.0178,-0.016,-0.0187,-0.0198,-0.0228,-0.0247,-0.0261,-0.0239,-0.0273,-0.0273,-0.0215,-0.0206,-0.0198,-0.0122,-0.0263,0,0,0,0,0,-0.0277,-0.0261,-0.0254,-0.0235,-0.0254,-0.0219,-0.0198,-0.0168,-0.0174,-0.0185,-0.0218,-0.0225,-0.0231,-0.0236,-0.0274,-0.029,-0.0258,-0.0261,-0.0253,-0.0246,-0.0194,-0.0176,-0.0161,-0.0321,-0.0321,-0.0321,0,0,-0.024,-0.0238,-0.0205,-0.0234,-0.0225,-0.0241,-0.0213,-0.0189,-0.0147,-0.0196,-0.0202,-0.0235,-0.0239,-0.0239,-0.0248,-0.0245,-0.0172,-0.0243,-0.0237,-0.0186,-0.0171,-0.0155,-0.0141,-0.0319,-0.032,-0.032,0,0,-0.0214,-0.023,-0.0237,-0.0255,-0.0234,-0.0221,-0.0224,-0.0229,-0.0195,-0.0198,-0.0196,-0.0201,-0.0247,-0.0214,-0.02,-0.0178,-0.0156,-0.0183,-0.0058,-0.0043,-0.0029,-0.0016,0.0098,0.012,-0.0149,-0.0149,-0.0149,0,-0.0192,-0.019,-0.0228,-0.028,-0.0244,-0.0228,-0.0232,-0.0211,-0.0206,-0.0178,-0.0187,-0.0184,-0.0211,-0.0143,-0.0099,-0.0156,-0.011,-0.0098,-0.003,-0.0018,-0.0006,0.0107,0.013,-0.0145,-0.0146,-0.0146,-0.0147,0,-0.0197,-0.0183,-0.0201,-0.0242,-0.0259,-0.0227,-0.0223,-0.0228,-0.0182,-0.0139,-0.0093,-0.0101,-0.0101,-0.0078,-0.0067,0.0023,0.0044,-0.005,-0.0052,0.0015,0.013,0.0153,-0.014,-0.0141,-0.0142,-0.0143,0,0,-0.0181,-0.0185,-0.0194,-0.0182,-0.0208,-0.0231,-0.0197,-0.0155,-0.0114,-0.0078,-0.0015,0.0043,0.0032,0.0053,0.006,0.0151,0.0285,0.0125,0.0124,0.025,0.0413,0.0437,0.0464,0.0194,0.0197,0.0199,0.048,0,-0.015,-0.0173,-0.0191,-0.0169,-0.0175,-0.018,-0.0142,-0.0114,-0.0076,-0.0047,0.0042,0.0075,0.0089,0.0102,0.0183,0.0201,0.0342,0.0225,0.0323,0.033,0.0347,0.0488,0.0514,0.0765,0.0502,0.0506,0.0509,0,-0.0188,-0.0156,-0.0129,-0.0089,-0.0107,-0.0115,-0.0089,-0.0054,-0.0006,0.0031,0.0076,0.0098,0.0213,0.0207,0.0374,0.0293,0.0398,0.0475,0.0482,0.0501,0.0395,0.0645,0.0817,0.0803,0.0544,0.0541,0.0539,0,-0.0162,-0.0147,-0.0082,-0.0077,-0.0045,-0.0048,-0.0056,-0.0041,0.0012,0.005,0.0096,0.0172,0.0226,0.033,0.0472,0.0411,0.0701,0.0574,0.0751,0.0755,0.0802,0.0804,0.098,0.0781,0.078,0.078,0.0779,0,-0.0127,-0.0073,-0.0071,-0.0035,0.0035,-0.0031,0.0024,0.0018,0.0037,0.0128,0.0123,0.0232,0.0266,0.0411,0.0518,0.0728,0.0708,0.0853,0.0836,0.0833,0.0835,0.0838,0.0707,0.079,0.0788,0.0786,0.0784,0,-0.008,-0.0048,0.0025,0.0054,0.0055,0.0071,0.0064,0.0093,0.0102,0.0202,0.0227,0.0283,0.0454,0.0577,0.0763,0.0798,0.0938,0.1087,0.1143,0.1126,0.1167,0.1036,0.1038,0.1011,0.1273,0.1275,0.1277,0,-0.004,-0.0008,0.0058,0.0089,0.0115,0.0131,0.016,0.0146,0.018,0.0282,0.0351,0.0503,0.064,0.0904,0.103,0.1244,0.1138,0.1378,0.1242,0.1259,0.11,0.0886,0.0846,0.1375,0.1377,0.1379,0.1381,0,0.0025,0.004,0.0088,0.0143,0.0174,0.0264,0.0272,0.032,0.0352,0.0427,0.0536,0.0625,0.0891,0.1061,0.1309,0.1417,0.1213,0.1425,0.1408,0.1204,0.1018,0.0952,0.1157,0.14,0.1398,0.1397,0.1396,0.1395,0.0035,0.0083,0.0082,0.0175,0.0225,0.0336,0.0372,0.0425,0.0502,0.0588,0.065,0.0765,0.1023,0.1327,0.1437,0.1599,0.141,0.1579,0.144,0.1245,0.1138,0.144,0.164,0.1639,0.1639,0.1638,0.1638,0,0.0019,0.0066,0.0091,0.0183,0.0242,0.0288,0.0407,0.0443,0.0546,0.0665,0.0726,0.0898,0.1193,0.1406,0.1713,0.1674,0.1496,0.1579,0.1313,0.1288,0.1597,0.1525,0.1748,0.1748,0.1748,0.1748,0.1748,0.1748,-0.0,0.0035,0.0087,0.0181,0.0227,0.0298,0.038,0.0467,0.0548,0.0647,0.0703,0.0743,0.1066,0.1483,0.1709,0.1657,0.1393,0.125,0.1171,0.1419,0.1409,0.1398,0.1313,0.1487,0.1486,0.09,0.0894,0.089]},{"header":{"parameterUnit":"m.s-1","parameterCategory":2,"la1":30.2991,"la2":30.254,"lo1":-89.0895,"lo2":-89.0444,"dy":0.0017,"dx":0.0017,"nx":28,"ny":28,"refTime":"2023-08-10T09:00:00:Z","depth":"0","parameterNumber":3,"parameterNumberName":"V-component_of_CURRENTS"},"data":[0,0,0,0,0,0,0,0,0,0,0,0,0,0,0,0,0,0,0,0,0,0,0,0,0,0,0,0,0,0,0,0,0,0,0,0,0,0,0,0,0,0,0,0,0,0,0,0,0,0,0,0,0,0,0,0,0,0,-0.0217,-0.022,0,-0.0339,-0.0338,-0.0338,-0.0292,-0.0291,-0.029,-0.0289,-0.0277,-0.0277,-0.0278,0,0,0,0,0,0,0,0,0,0,0,0,0,-0.0012,-0.0014,-0.0217,-0.022,-0.0224,-0.0339,-0.0338,-0.0338,-0.0292,-0.0291,-0.029,-0.0289,-0.0276,-0.0277,-0.0278,0,0,0,0,0,0,0,0,0,0,0,0,0,-0.0094,-0.0014,-0.0216,-0.0229,-0.0233,-0.0339,-0.0338,-0.0338,-0.0292,-0.0291,-0.0289,-0.0288,-0.0276,-0.0277,-0.0278,-0.031,0,0,-0.028,-0.028,0,0,0,0,0,0,0,0,-0.0089,-0.0099,-0.0224,-0.0229,-0.0234,-0.0317,-0.0263,-0.0329,-0.0293,-0.0248,-0.0289,-0.0287,-0.0292,-0.0291,-0.029,-0.031,-0.0309,-0.028,-0.0281,-0.0281,-0.0281,0,0,0,0,0,0,0,-0.0084,-0.0094,-0.0244,-0.0228,-0.0234,-0.0254,-0.0261,-0.0274,-0.0258,-0.0252,-0.0254,-0.0301,-0.029,-0.0289,-0.0289,-0.0309,-0.028,-0.0281,-0.0281,-0.0282,-0.0292,-0.0292,0,0,0,0,0,0,-0.0108,-0.0089,-0.0241,-0.025,-0.018,-0.026,-0.0267,-0.0275,-0.0261,-0.0265,-0.0302,-0.0298,-0.0289,-0.0289,-0.0289,-0.0276,-0.0281,-0.0282,-0.0282,-0.0292,-0.0292,-0.0292,0,0,0,0,0,0,-0.0103,-0.0119,-0.0236,-0.0191,-0.0209,-0.0267,-0.0275,-0.0278,-0.0287,-0.0304,-0.03,-0.031,-0.0288,-0.0288,-0.0271,-0.0277,-0.0282,-0.0283,-0.0292,-0.0292,-0.0292,-0.0282,0,0,0,0,0,0,-0.0095,-0.0115,-0.0119,-0.0191,-0.0214,-0.0304,-0.0278,-0.0282,-0.0327,-0.0323,-0.0311,-0.0307,-0.0287,-0.0269,-0.0272,-0.0278,-0.0283,-0.0293,-0.0292,-0.0292,-0.0283,-0.0281,-0.028,0,0,0,0,0,-0.0087,-0.0084,-0.0117,-0.0137,-0.0218,-0.0307,-0.0317,-0.0341,-0.033,-0.0338,-0.0302,-0.0308,-0.0269,-0.027,-0.0272,-0.0279,-0.0293,-0.0292,-0.0292,-0.0283,-0.0282,-0.028,0,0,0,0,0,0,-0.0031,-0.0085,-0.012,-0.0145,-0.0236,-0.0307,-0.0334,-0.0355,-0.0337,-0.0312,-0.0303,-0.0298,-0.0289,-0.0287,-0.0289,-0.028,-0.0285,-0.0285,-0.0277,-0.0276,-0.0275,-0.0328,-0.0284,0,0,0,0,0,-0.0024,-0.0021,-0.0119,-0.016,-0.0199,-0.0272,-0.0311,-0.0325,-0.0341,-0.0332,-0.0344,-0.0323,-0.0293,-0.0284,-0.0276,-0.0275,-0.0273,-0.0282,-0.0281,-0.028,-0.0325,-0.0307,-0.0308,-0.029,-0.029,-0.029,0,0,-0.0026,-0.0065,-0.0067,-0.0148,-0.0214,-0.0276,-0.0284,-0.0342,-0.0365,-0.0335,-0.0356,-0.0332,-0.0293,-0.0275,-0.0273,-0.0271,-0.0272,-0.0279,-0.0279,-0.0325,-0.0307,-0.0308,-0.031,-0.029,-0.029,-0.029,0,0,-0.0058,-0.0063,-0.0083,-0.0129,-0.0229,-0.0278,-0.0303,-0.0382,-0.0375,-0.0406,-0.0361,-0.0345,-0.0351,-0.0307,-0.0281,-0.028,-0.0272,-0.0274,-0.0308,-0.0287,-0.0289,-0.0291,-0.0241,-0.0239,-0.0266,-0.0266,-0.0266,0,-0.0065,-0.0089,-0.0119,-0.0161,-0.0204,-0.0285,-0.0335,-0.0352,-0.0413,-0.0386,-0.0415,-0.0386,-0.037,-0.03,-0.0302,-0.0282,-0.0259,-0.0308,-0.0287,-0.0289,-0.0291,-0.024,-0.0237,-0.0266,-0.0266,-0.0266,-0.0266,0,-0.013,-0.0127,-0.0152,-0.0217,-0.0276,-0.0315,-0.0377,-0.0402,-0.0432,-0.0435,-0.0412,-0.0402,-0.0375,-0.0367,-0.0343,-0.0327,-0.0299,-0.0289,-0.0292,-0.0293,-0.0237,-0.0235,-0.0265,-0.0265,-0.0265,-0.0265,0,0,-0.0168,-0.0182,-0.0181,-0.0196,-0.0273,-0.0334,-0.0364,-0.0396,-0.0371,-0.0434,-0.0393,-0.04,-0.0392,-0.0369,-0.0333,-0.0347,-0.0331,-0.034,-0.0339,-0.0295,-0.0263,-0.0252,-0.0248,-0.0311,-0.0311,-0.0312,-0.02,0,-0.021,-0.0242,-0.025,-0.0304,-0.0331,-0.0358,-0.039,-0.0406,-0.04,-0.0372,-0.0347,-0.0313,-0.0381,-0.0351,-0.0378,-0.0342,-0.0334,-0.0362,-0.0269,-0.0267,-0.0261,-0.0249,-0.0207,-0.0107,-0.0198,-0.0197,-0.0197,0,-0.0268,-0.0264,-0.0292,-0.0295,-0.0316,-0.0367,-0.0381,-0.0404,-0.0343,-0.0318,-0.0288,-0.0254,-0.0259,-0.0317,-0.033,-0.0341,-0.0322,-0.0319,-0.0312,-0.0324,-0.0255,-0.0131,-0.0099,0.0008,-0.0193,-0.0194,-0.0194,0,-0.0285,-0.0289,-0.0298,-0.0298,-0.0337,-0.0347,-0.0394,-0.0375,-0.0345,-0.0263,-0.0211,-0.0208,-0.0205,-0.0227,-0.0259,-0.0278,-0.0261,-0.0252,-0.0216,-0.0211,-0.0177,-0.017,-0.0047,-0.0254,-0.0254,-0.0254,-0.0255,0,-0.0297,-0.0299,-0.0291,-0.029,-0.0314,-0.0347,-0.0338,-0.0355,-0.0294,-0.022,-0.0185,-0.0132,-0.0201,-0.0181,-0.0209,-0.0223,-0.0213,-0.0242,-0.0199,-0.0165,-0.0159,-0.0068,-0.0024,-0.025,-0.0251,-0.0252,-0.0252,0,-0.031,-0.0296,-0.0303,-0.0308,-0.0321,-0.0345,-0.0347,-0.0317,-0.0266,-0.016,-0.0133,-0.009,-0.009,-0.0114,-0.0127,-0.0157,-0.0075,-0.0136,-0.0088,-0.0045,0.0055,0.0096,0.0199,0.0303,-0.0081,-0.008,-0.008,0,-0.0312,-0.0311,-0.032,-0.032,-0.0321,-0.0329,-0.034,-0.0327,-0.0266,-0.0127,-0.0075,-0.0025,0.0027,0.0011,-0.0044,-0.005,0.0008,-0.0002,-0.0062,0.0049,0.013,0.0146,0.0228,0.003,0.0031,0.0032,0.0033,0,-0.03,-0.0307,-0.0302,-0.0305,-0.0317,-0.0307,-0.0298,-0.0243,-0.0174,-0.0073,0.0067,0.0132,0.0123,0.01,0.0053,0.0048,0.0104,0.002,0.0128,0.0196,0.0229,0.0356,-0.0006,0.0044,0.0042,0.0042,0.0041,0.0041,-0.0291,-0.0284,-0.027,-0.0276,-0.0275,-0.0242,-0.0218,-0.0153,-0.0055,0.013,0.0184,0.0322,0.0299,0.0219,0.0196,0.0227,0.0198,0.024,0.0281,0.0286,0.037,0.0025,0.0115,0.0114,0.0114,0.0113,0.0113,0,-0.0266,-0.0249,-0.0238,-0.0223,-0.0191,-0.0219,-0.0153,-0.0083,0.0062,0.0207,0.0361,0.0547,0.0501,0.0465,0.0434,0.0484,0.0521,0.0531,0.0585,0.0658,0.0356,0.0343,0.0496,0.0495,0.0495,0.0495,0.0495,0.0495,-0.025,-0.022,-0.02,-0.0118,-0.0109,-0.0054,-0.0007,0.0091,0.0211,0.0441,0.0602,0.0731,0.0805,0.0685,0.073,0.0753,0.0924,0.0865,0.096,0.0763,0.074,0.0717,0.0716,0.0944,0.0945,0.1277,0.128,0.1282]}],[{"header":{"parameterUnit":"m.s-1","parameterCategory":2,"la1":30.2991,"la2":30.254,"lo1":-89.0895,"lo2":-89.0444,"dy":0.0017,"dx":0.0017,"nx":28,"ny":28,"refTime":"2023-08-10T09:00:00:Z","depth":"2","parameterNumber":2,"parameterNumberName":"U-component_of_CURRENTS"},"data":[0,0,0,0,0,0,0,0,0,0,0,0,0,0,0,0,0,0,0,0,0,0,0,0,0,0,0,0,0,0,0,0,0,0,0,0,0,0,0,0,0,0,0,0,0,0,0,0,0,0,0,0,0,0,0,0,0,0,-0.2122,-0.2131,0,-0.2512,-0.2511,-0.251,-0.2258,-0.2252,-0.2247,-0.2242,-0.2113,-0.2114,-0.2116,0,0,0,0,0,0,0,0,0,0,0,0,0,-0.1772,-0.1769,-0.212,-0.2132,-0.2143,-0.2512,-0.2511,-0.2509,-0.2259,-0.2252,-0.2246,-0.224,-0.2112,-0.2114,-0.2116,0,0,0,0,0,0,0,0,0,0,0,0,0,-0.1951,-0.1768,-0.2119,-0.2114,-0.2123,-0.2513,-0.2511,-0.2509,-0.226,-0.2252,-0.2244,-0.2237,-0.2112,-0.2114,-0.2116,-0.2287,0,0,-0.2123,-0.2124,0,0,0,0,0,0,0,0,-0.1939,-0.1953,-0.2104,-0.2116,-0.2127,-0.239,-0.2346,-0.2434,-0.2262,-0.2134,-0.2242,-0.2233,-0.2209,-0.2203,-0.2201,-0.2281,-0.2276,-0.2123,-0.2124,-0.2125,-0.2126,0,0,0,0,0,0,0,-0.1926,-0.1941,-0.2204,-0.2118,-0.2133,-0.2311,-0.2312,-0.236,-0.2146,-0.2144,-0.2144,-0.2303,-0.22,-0.22,-0.2196,-0.2274,-0.2123,-0.2125,-0.2126,-0.2127,-0.2072,-0.2069,0,0,0,0,0,0,-0.1997,-0.1925,-0.2193,-0.2223,-0.2092,-0.2325,-0.2325,-0.2256,-0.2157,-0.216,-0.231,-0.2291,-0.22,-0.2194,-0.219,-0.2045,-0.2125,-0.2127,-0.2128,-0.2075,-0.2071,-0.2068,0,0,0,0,0,0,-0.1983,-0.2006,-0.2178,-0.2154,-0.2197,-0.2342,-0.2266,-0.227,-0.2189,-0.2302,-0.2276,-0.2225,-0.2193,-0.2187,-0.213,-0.205,-0.2128,-0.213,-0.2078,-0.2074,-0.207,-0.1975,0,0,0,0,0,0,-0.1966,-0.1992,-0.1905,-0.215,-0.2203,-0.2355,-0.2282,-0.2285,-0.234,-0.2312,-0.2226,-0.2209,-0.2187,-0.2127,-0.2132,-0.2055,-0.2132,-0.2081,-0.2076,-0.2071,-0.1981,-0.1968,-0.1956,0,0,0,0,0,-0.1948,-0.1888,-0.189,-0.193,-0.2086,-0.2366,-0.2395,-0.2438,-0.2343,-0.2315,-0.2223,-0.2207,-0.2094,-0.2129,-0.2135,-0.2056,-0.2084,-0.2077,-0.2071,-0.1987,-0.197,-0.1957,0,0,0,0,0,0,-0.1716,-0.1874,-0.1877,-0.1861,-0.209,-0.2346,-0.2376,-0.2416,-0.2329,-0.226,-0.2218,-0.22,-0.2097,-0.2117,-0.2155,-0.2019,-0.2072,-0.2067,-0.2005,-0.199,-0.1977,-0.2059,-0.2134,0,0,0,0,0,-0.1645,-0.1631,-0.1863,-0.1901,-0.1953,-0.2138,-0.2237,-0.2308,-0.2364,-0.2308,-0.2251,-0.2173,-0.2106,-0.2073,-0.2035,-0.2023,-0.2064,-0.196,-0.1947,-0.1936,-0.2004,-0.2075,-0.2077,-0.2048,-0.2048,-0.2048,0,0,-0.1678,-0.172,-0.1761,-0.1862,-0.1985,-0.2099,-0.2145,-0.2322,-0.2377,-0.2324,-0.2217,-0.2137,-0.2089,-0.201,-0.1968,-0.2002,-0.1925,-0.1929,-0.192,-0.1995,-0.2069,-0.2073,-0.2076,-0.2044,-0.2044,-0.2045,0,0,-0.1712,-0.1641,-0.1615,-0.1747,-0.1966,-0.2093,-0.2125,-0.2299,-0.2256,-0.2295,-0.2177,-0.2085,-0.2026,-0.196,-0.1925,-0.1856,-0.1851,-0.1772,-0.1793,-0.1856,-0.1862,-0.1868,-0.1764,-0.1762,-0.1776,-0.1775,-0.1775,0,-0.1674,-0.1674,-0.1705,-0.1712,-0.1853,-0.2052,-0.2126,-0.2183,-0.232,-0.2275,-0.2239,-0.2088,-0.2028,-0.1933,-0.1854,-0.1834,-0.1811,-0.1847,-0.1847,-0.1855,-0.1863,-0.1757,-0.1756,-0.177,-0.1771,-0.1771,-0.1772,0,-0.1744,-0.1721,-0.175,-0.1761,-0.1856,-0.2044,-0.2166,-0.2169,-0.2167,-0.2229,-0.2125,-0.2079,-0.197,-0.1911,-0.1861,-0.1819,-0.175,-0.1816,-0.1901,-0.1862,-0.1747,-0.1749,-0.1762,-0.1764,-0.1766,-0.1767,0,0,-0.166,-0.1764,-0.1749,-0.1752,-0.1914,-0.201,-0.2044,-0.2139,-0.2087,-0.2163,-0.2057,-0.1997,-0.1938,-0.1899,-0.1808,-0.1882,-0.1827,-0.1853,-0.1859,-0.1773,-0.1828,-0.1587,-0.1564,-0.1887,-0.189,-0.1893,-0.1668,0,-0.1697,-0.1719,-0.176,-0.1848,-0.1877,-0.1991,-0.2008,-0.208,-0.2076,-0.1993,-0.2007,-0.1884,-0.1943,-0.181,-0.1901,-0.1849,-0.1851,-0.1874,-0.1864,-0.1862,-0.1677,-0.1569,-0.1606,-0.1398,-0.167,-0.167,-0.167,0,-0.1686,-0.17,-0.1771,-0.1814,-0.1814,-0.1852,-0.1827,-0.1892,-0.1858,-0.1827,-0.1788,-0.1744,-0.1747,-0.1808,-0.1887,-0.1883,-0.1838,-0.1866,-0.1859,-0.1709,-0.163,-0.1511,-0.1391,-0.1673,-0.1673,-0.1673,-0.1673,0,-0.1579,-0.1663,-0.1716,-0.1775,-0.187,-0.1796,-0.1798,-0.1775,-0.179,-0.1655,-0.161,-0.1639,-0.155,-0.1704,-0.1725,-0.178,-0.1804,-0.188,-0.1625,-0.1599,-0.1678,-0.1655,-0.1937,-0.1937,-0.1938,-0.1938,-0.1939,0,-0.1592,-0.1589,-0.1648,-0.1662,-0.1652,-0.1661,-0.1591,-0.1572,-0.1541,-0.1535,-0.1478,-0.1455,-0.1538,-0.1541,-0.1656,-0.1609,-0.1745,-0.161,-0.1558,-0.1614,-0.159,-0.1926,-0.1928,-0.193,-0.1932,-0.1933,-0.1935,0,-0.1502,-0.1586,-0.1613,-0.1631,-0.1604,-0.1553,-0.1511,-0.1478,-0.1437,-0.1395,-0.1352,-0.1278,-0.1271,-0.1334,-0.1411,-0.1403,-0.1467,-0.1387,-0.1333,-0.128,-0.1215,-0.1214,-0.11,-0.109,-0.1082,-0.1075,-0.1069,0,-0.1485,-0.1513,-0.1545,-0.1547,-0.1534,-0.147,-0.1444,-0.1413,-0.1413,-0.1355,-0.1343,-0.1184,-0.1175,-0.1099,-0.1051,-0.1065,-0.1206,-0.0946,-0.1106,-0.1183,-0.1145,-0.1157,-0.1167,-0.1102,-0.1097,-0.1093,-0.109,0,-0.1437,-0.146,-0.1478,-0.149,-0.1434,-0.1435,-0.135,-0.1369,-0.137,-0.1375,-0.1322,-0.1281,-0.1061,-0.0994,-0.0786,-0.0848,-0.0975,-0.0846,-0.1023,-0.128,-0.1162,-0.1131,-0.1147,-0.1054,-0.1057,-0.106,-0.1062,-0.1063,-0.1375,-0.1386,-0.1398,-0.1431,-0.1404,-0.1344,-0.1261,-0.1256,-0.1265,-0.1235,-0.1294,-0.1159,-0.1052,-0.0732,-0.0724,-0.0558,-0.0636,-0.0656,-0.0682,-0.0709,-0.0722,-0.0595,-0.0371,-0.0371,-0.0371,-0.037,-0.037,0,-0.1338,-0.1304,-0.1326,-0.1323,-0.1326,-0.1245,-0.1208,-0.1203,-0.1176,-0.1111,-0.1111,-0.0947,-0.0873,-0.0742,-0.0467,-0.0372,-0.0517,-0.0347,-0.0629,-0.0663,-0.0693,-0.072,-0.0361,-0.036,-0.036,-0.0359,0,0,-0.1316,-0.1307,-0.1343,-0.1281,-0.1213,-0.1057,-0.0984,-0.0996,-0.0962,-0.0886,-0.0724,-0.0793,-0.0717,-0.0526,-0.0517,-0.0396,-0.053,-0.0368,-0.0388,-0.0757,-0.0787,-0.0882,-0.0957,0,0,0,0,0]},{"header":{"parameterUnit":"m.s-1","parameterCategory":2,"la1":30.2991,"la2":30.254,"lo1":-89.0895,"lo2":-89.0444,"dy":0.0017,"dx":0.0017,"nx":28,"ny":28,"refTime":"2023-08-10T09:00:00:Z","depth":"2","parameterNumber":3,"parameterNumberName":"V-component_of_CURRENTS"},"data":[0,0,0,0,0,0,0,0,0,0,0,0,0,0,0,0,0,0,0,0,0,0,0,0,0,0,0,0,0,0,0,0,0,0,0,0,0,0,0,0,0,0,0,0,0,0,0,0,0,0,0,0,0,0,0,0,0,0,-0.0068,-0.0068,0,-0.0071,-0.0071,-0.0071,-0.0097,-0.0098,-0.0098,-0.0099,0.0107,0.0113,0.0119,0,0,0,0,0,0,0,0,0,0,0,0,0,-0.0074,-0.0074,-0.0068,-0.0068,-0.0068,-0.0071,-0.0071,-0.0071,-0.0097,-0.0098,-0.0099,-0.01,0.0104,0.0112,0.0119,0,0,0,0,0,0,0,0,0,0,0,0,0,-0.0072,-0.0074,-0.0068,-0.0084,-0.0085,-0.0071,-0.0071,-0.0071,-0.0096,-0.0098,-0.0099,-0.01,0.0102,0.0111,0.012,0.0205,0,0,0.0149,0.0153,0,0,0,0,0,0,0,0,-0.0072,-0.0071,-0.0081,-0.0082,-0.0084,-0.0087,0.0002,0.0031,-0.0096,-0.0089,-0.0099,-0.0101,0.0061,0.0073,0.0076,0.0215,0.0224,0.015,0.0156,0.016,0.0163,0,0,0,0,0,0,0,-0.0072,-0.0071,-0.0066,-0.0081,-0.0083,-0.0088,-0.0088,0.0006,-0.0001,-0.009,-0.0092,-0.0097,0.0061,0.0067,0.0082,0.0227,0.015,0.0158,0.0164,0.0168,0.0298,0.0296,0,0,0,0,0,0,-0.0076,-0.0071,-0.0066,-0.0067,-0.0084,-0.0087,-0.0088,-0.0083,-0.0007,0.0001,-0.0096,-0.0098,0.0051,0.007,0.0089,0.0112,0.016,0.0169,0.0174,0.03,0.0297,0.0295,0,0,0,0,0,0,-0.0076,-0.0075,-0.0066,-0.0072,-0.0072,-0.0086,-0.008,-0.0082,-0.0095,-0.0014,-0.0002,-0.0109,0.0051,0.0076,0.012,0.0124,0.0173,0.0182,0.0303,0.0299,0.0296,0.0213,0,0,0,0,0,0,-0.0076,-0.0074,-0.0073,-0.0072,-0.0071,-0.008,-0.0079,-0.0081,-0.0096,-0.0099,-0.0019,-0.0002,0.0052,0.0105,0.0129,0.0138,0.0189,0.0305,0.0301,0.0297,0.0219,0.0208,0.0198,0,0,0,0,0,-0.0076,-0.0089,-0.0072,-0.0072,-0.0068,-0.0081,-0.0082,-0.0094,-0.0095,-0.0108,-0.0077,-0.0005,0.0095,0.0111,0.014,0.0152,0.0307,0.0302,0.0298,0.0224,0.021,0.0198,0,0,0,0,0,0,-0.009,-0.0092,-0.0075,-0.0085,-0.0086,-0.0087,-0.0116,-0.01,-0.0086,-0.0091,-0.0014,0.0006,0.005,0.0098,0.0113,0.0166,0.0208,0.0208,0.0141,0.013,0.0119,0.0147,0.0197,0,0,0,0,0,-0.0087,-0.0098,-0.0092,-0.0097,-0.0115,-0.0109,-0.0115,-0.0111,-0.01,-0.0098,-0.0053,-0.0005,0.0057,0.0086,0.0146,0.019,0.0247,0.0204,0.0193,0.0185,0.022,0.0292,0.0293,0.0279,0.0279,0.0279,0,0,-0.0088,-0.0095,-0.0096,-0.0101,-0.0117,-0.012,-0.0119,-0.0142,-0.0111,-0.0068,-0.0047,-0.0021,0.006,0.0091,0.0115,0.013,0.0202,0.0178,0.0171,0.0212,0.0287,0.0289,0.0291,0.0275,0.0276,0.0276,0,0,-0.0127,-0.0117,-0.0153,-0.0147,-0.0165,-0.0149,-0.0157,-0.0166,-0.0152,-0.0123,-0.0089,-0.008,0.0006,0.0045,0.0089,0.0061,0.0154,0.0067,0.0043,0.011,0.0114,0.0118,0.0133,0.0139,0.0052,0.0052,0.0051,0,-0.0146,-0.0151,-0.0163,-0.0188,-0.0185,-0.0163,-0.018,-0.0141,-0.0124,-0.0114,-0.013,-0.005,-0.0006,0.007,0.0029,0.0048,0.0083,0.009,0.0102,0.0107,0.0113,0.0128,0.0137,0.0047,0.0047,0.0048,0.0048,0,-0.0188,-0.019,-0.0222,-0.0226,-0.0227,-0.0236,-0.0192,-0.0179,-0.0167,-0.0139,-0.0098,-0.0063,-0.0024,-0.0023,0.0001,0.0054,0.006,0.0091,0.0145,0.0111,0.0126,0.0136,0.004,0.0042,0.0043,0.0045,0,0,-0.024,-0.0254,-0.0256,-0.0253,-0.024,-0.024,-0.0201,-0.0167,-0.0142,-0.0119,-0.011,-0.004,-0.0052,-0.0006,0.0018,0.0059,0.0079,0.0075,0.0081,0.0109,0.0195,0.0181,0.0191,0.0119,0.0121,0.0123,0.0169,0,-0.0275,-0.0313,-0.0303,-0.0297,-0.0314,-0.0268,-0.0245,-0.0199,-0.0159,-0.0146,-0.0088,-0.006,-0.0023,-0.0036,0.0017,0.0076,0.0112,0.0063,0.021,0.0214,0.0224,0.0206,0.0206,0.0248,0.018,0.0182,0.0183,0,-0.0315,-0.0325,-0.0349,-0.0337,-0.0349,-0.0329,-0.0286,-0.0253,-0.02,-0.0189,-0.0139,-0.0097,-0.0031,-0.0018,0.013,0.0097,0.0143,0.0188,0.0192,0.0235,0.0223,0.0282,0.0271,0.0201,0.0199,0.0198,0.0197,0,-0.0341,-0.0349,-0.0363,-0.0348,-0.0339,-0.0335,-0.0327,-0.0282,-0.0241,-0.0207,-0.019,-0.0105,-0.0064,0.0041,0.0127,0.0134,0.0262,0.0285,0.0326,0.0323,0.0386,0.0386,0.0397,0.0397,0.0397,0.0396,0.0396,0,-0.0372,-0.0378,-0.0367,-0.0363,-0.0376,-0.0368,-0.0368,-0.0344,-0.03,-0.0248,-0.0209,-0.0135,-0.0039,0.0047,0.0119,0.0247,0.027,0.034,0.0353,0.0345,0.034,0.0366,0.0362,0.0398,0.0398,0.0397,0.0397,0,-0.0404,-0.0406,-0.0415,-0.0401,-0.0395,-0.0407,-0.0385,-0.036,-0.0324,-0.0247,-0.0231,-0.0139,-0.0047,0.0033,0.0159,0.0249,0.0349,0.038,0.0327,0.0335,0.0363,0.0353,0.046,0.046,0.0461,0.0461,0.0461,0,-0.0432,-0.043,-0.043,-0.044,-0.0434,-0.0437,-0.0434,-0.0391,-0.0318,-0.0212,-0.0151,-0.0083,0.0007,0.0141,0.0241,0.0344,0.0329,0.0414,0.0451,0.0377,0.0379,0.0369,0.0359,0.0471,0.0471,0.0471,0.0471,0,-0.0452,-0.0455,-0.0447,-0.0464,-0.046,-0.0453,-0.0407,-0.0357,-0.0269,-0.0174,-0.0027,0.0038,0.0143,0.0226,0.0289,0.0379,0.0395,0.0424,0.0396,0.0447,0.039,0.039,0.038,0.0473,0.0473,0.0473,0.0473,0.0473,-0.0458,-0.0465,-0.0461,-0.0467,-0.0451,-0.0433,-0.0407,-0.0305,-0.0201,-0.0089,-0.0039,0.0044,0.0089,0.0183,0.0296,0.0429,0.0447,0.0484,0.0483,0.0482,0.0468,0.0414,0.0496,0.0496,0.0496,0.0496,0.0496,0,-0.046,-0.0451,-0.0465,-0.0462,-0.042,-0.0422,-0.0336,-0.0303,-0.0145,-0.0106,-0.0036,-0.0015,0.0053,0.0146,0.038,0.0503,0.0535,0.0508,0.0502,0.05,0.0498,0.0484,0.0517,0.0517,0.0517,0.0517,0,0,-0.0479,-0.0486,-0.0486,-0.0415,-0.038,-0.0289,-0.0232,-0.0203,-0.0139,-0.0115,-0.0063,-0.0216,0.0026,0.0106,0.0242,0.0414,0.0446,0.0451,0.0428,0.0405,0.0402,0.0482,0.0457,0,0,0,0,0]}],[{"header":{"parameterUnit":"m.s-1","parameterCategory":2,"la1":30.2991,"la2":30.254,"lo1":-89.0895,"lo2":-89.0444,"dy":0.0017,"dx":0.0017,"nx":28,"ny":28,"refTime":"2023-08-10T09:00:00:Z","depth":"4","parameterNumber":2,"parameterNumberName":"U-component_of_CURRENTS"},"data":[0,0,0,0,0,0,0,0,0,0,0,0,0,0,0,0,0,0,0,0,0,0,0,0,0,0,0,0,0,0,0,0,0,0,0,0,0,0,0,0,0,0,0,0,0,0,0,0,0,0,0,0,0,0,0,0,0,0,-0.1238,-0.1238,0,-0.1309,-0.131,-0.1311,-0.1377,-0.1378,-0.1378,-0.1378,-0.1451,-0.1452,-0.1454,0,0,0,0,0,0,0,0,0,0,0,0,0,-0.1142,-0.1144,-0.1238,-0.1238,-0.1239,-0.1309,-0.131,-0.1311,-0.1377,-0.1378,-0.1378,-0.1379,-0.145,-0.1452,-0.1454,0,0,0,0,0,0,0,0,0,0,0,0,0,-0.1199,-0.1145,-0.1237,-0.1277,-0.1281,-0.1308,-0.131,-0.1312,-0.1377,-0.1378,-0.1378,-0.1379,-0.145,-0.1452,-0.1454,-0.1454,0,0,-0.1461,-0.1462,0,0,0,0,0,0,0,0,-0.1196,-0.1203,-0.1271,-0.1274,-0.1279,-0.1332,-0.1303,-0.1358,-0.1377,-0.1344,-0.1378,-0.1379,-0.1408,-0.1414,-0.1431,-0.1457,-0.146,-0.1461,-0.1463,-0.1464,-0.1464,0,0,0,0,0,0,0,-0.1192,-0.12,-0.127,-0.1271,-0.1276,-0.1285,-0.1295,-0.1314,-0.1374,-0.1347,-0.1351,-0.1353,-0.1411,-0.1429,-0.1433,-0.1462,-0.1461,-0.1463,-0.1465,-0.1465,-0.1544,-0.1545,0,0,0,0,0,0,-0.1176,-0.1197,-0.1267,-0.1271,-0.1234,-0.1286,-0.1297,-0.1317,-0.1374,-0.1383,-0.1352,-0.1356,-0.1424,-0.143,-0.1436,-0.1499,-0.1464,-0.1466,-0.1467,-0.1544,-0.1545,-0.1545,0,0,0,0,0,0,-0.1174,-0.1182,-0.1264,-0.1231,-0.1242,-0.1287,-0.1309,-0.1318,-0.1356,-0.1377,-0.1387,-0.1382,-0.1425,-0.1433,-0.1476,-0.15,-0.1467,-0.1469,-0.1543,-0.1544,-0.1545,-0.1586,0,0,0,0,0,0,-0.1171,-0.1182,-0.1211,-0.1231,-0.1243,-0.1292,-0.1308,-0.1319,-0.1352,-0.1358,-0.1405,-0.1412,-0.1426,-0.1472,-0.1478,-0.1502,-0.147,-0.1542,-0.1543,-0.1545,-0.1584,-0.1588,-0.1592,0,0,0,0,0,-0.1168,-0.1202,-0.1212,-0.1221,-0.1276,-0.1292,-0.13,-0.1335,-0.1353,-0.1372,-0.1409,-0.1412,-0.1485,-0.1475,-0.1481,-0.1507,-0.1541,-0.1543,-0.1545,-0.1582,-0.1587,-0.1592,0,0,0,0,0,0,-0.1173,-0.1212,-0.1224,-0.1268,-0.1281,-0.1302,-0.1329,-0.1344,-0.1389,-0.1405,-0.1426,-0.1435,-0.1478,-0.1485,-0.1473,-0.1532,-0.1511,-0.1514,-0.1537,-0.1543,-0.1547,-0.1533,-0.1472,0,0,0,0,0,-0.1184,-0.1226,-0.1243,-0.1276,-0.1285,-0.1308,-0.1327,-0.1346,-0.1375,-0.1398,-0.143,-0.1462,-0.1486,-0.1509,-0.153,-0.1567,-0.1551,-0.1584,-0.1589,-0.1592,-0.1584,-0.1588,-0.1592,-0.1551,-0.1551,-0.1551,0,0,-0.1181,-0.122,-0.1235,-0.1281,-0.1297,-0.1313,-0.1323,-0.1353,-0.1376,-0.1396,-0.1455,-0.1478,-0.1497,-0.154,-0.1559,-0.1554,-0.1596,-0.1594,-0.1598,-0.1587,-0.159,-0.1594,-0.1597,-0.1552,-0.1552,-0.1552,0,0,-0.1198,-0.124,-0.1275,-0.129,-0.1324,-0.1336,-0.1345,-0.1377,-0.1407,-0.1451,-0.1471,-0.1509,-0.1555,-0.1575,-0.1588,-0.1626,-0.1614,-0.1637,-0.1658,-0.1662,-0.1666,-0.1668,-0.1652,-0.1653,-0.1646,-0.1646,-0.1646,0,-0.1206,-0.1247,-0.1282,-0.1313,-0.1324,-0.1344,-0.136,-0.1389,-0.1436,-0.1458,-0.1475,-0.1548,-0.1567,-0.1609,-0.1627,-0.1636,-0.1629,-0.1639,-0.1668,-0.167,-0.1672,-0.1655,-0.1655,-0.1648,-0.1648,-0.1648,-0.1648,0,-0.1222,-0.1267,-0.1284,-0.1334,-0.1352,-0.1368,-0.1393,-0.1425,-0.146,-0.1489,-0.1548,-0.1585,-0.1622,-0.1641,-0.1649,-0.168,-0.1667,-0.1668,-0.1654,-0.1678,-0.1659,-0.1658,-0.1651,-0.1651,-0.165,-0.1649,0,0,-0.1213,-0.1285,-0.1292,-0.1317,-0.1363,-0.1374,-0.141,-0.1443,-0.1468,-0.1531,-0.157,-0.1626,-0.1651,-0.1666,-0.1688,-0.1703,-0.1714,-0.1697,-0.1697,-0.1679,-0.1713,-0.1559,-0.1544,-0.1727,-0.1727,-0.1727,-0.1692,0,-0.1217,-0.1275,-0.1308,-0.1344,-0.1367,-0.1392,-0.1419,-0.1456,-0.1496,-0.1543,-0.1594,-0.1644,-0.166,-0.1689,-0.1706,-0.1708,-0.1715,-0.1722,-0.1692,-0.1691,-0.155,-0.1539,-0.1728,-0.1692,-0.1692,-0.1692,-0.1691,0,-0.1211,-0.1262,-0.1297,-0.1356,-0.1365,-0.1392,-0.1428,-0.1454,-0.1513,-0.1546,-0.1605,-0.1648,-0.1691,-0.1701,-0.1715,-0.1721,-0.1716,-0.1718,-0.1716,-0.1554,-0.1535,-0.1662,-0.169,-0.169,-0.1691,-0.1691,-0.1691,0,-0.1168,-0.1248,-0.1278,-0.1293,-0.1359,-0.1385,-0.1418,-0.1466,-0.1484,-0.1557,-0.1578,-0.1645,-0.1671,-0.1689,-0.1684,-0.171,-0.1677,-0.171,-0.1568,-0.1557,-0.1691,-0.1689,-0.1712,-0.1712,-0.1712,-0.1712,-0.1712,0,-0.114,-0.1175,-0.1271,-0.1281,-0.1319,-0.1376,-0.1404,-0.1438,-0.1492,-0.1502,-0.1584,-0.1594,-0.167,-0.1665,-0.1673,-0.1587,-0.1662,-0.155,-0.1531,-0.1709,-0.1709,-0.169,-0.1688,-0.1711,-0.1711,-0.1711,-0.1711,0,-0.1079,-0.1136,-0.1181,-0.1267,-0.1295,-0.1321,-0.1387,-0.1407,-0.1457,-0.147,-0.1496,-0.1555,-0.1528,-0.1559,-0.1567,-0.1536,-0.1499,-0.1454,-0.1612,-0.1607,-0.1389,-0.139,-0.1304,-0.1298,-0.1293,-0.1289,-0.1286,0,-0.1052,-0.1069,-0.1152,-0.117,-0.1216,-0.1271,-0.13,-0.1377,-0.1382,-0.1422,-0.1412,-0.1425,-0.1443,-0.1321,-0.1373,-0.134,-0.1338,-0.1323,-0.1385,-0.1353,-0.1344,-0.1353,-0.1361,-0.1278,-0.1277,-0.1275,-0.1274,0,-0.0998,-0.1028,-0.1058,-0.1091,-0.1138,-0.1168,-0.1217,-0.1207,-0.1267,-0.134,-0.129,-0.1281,-0.1229,-0.1225,-0.1179,-0.1176,-0.134,-0.1272,-0.1284,-0.1342,-0.132,-0.1319,-0.1332,-0.1257,-0.1259,-0.1261,-0.1262,0,-0.0956,-0.0956,-0.0982,-0.1005,-0.1039,-0.1032,-0.108,-0.1087,-0.1102,-0.1157,-0.1138,-0.1149,-0.1204,-0.1135,-0.1104,-0.106,-0.1075,-0.1087,-0.111,-0.1129,-0.1086,-0.1033,-0.0844,0,0,0,0,0,-0.0912,-0.0896,-0.0896,-0.089,-0.0908,-0.0927,-0.0996,-0.1047,-0.1115,-0.1046,-0.1083,-0.1033,-0.0985,-0.1003,-0.0921,-0.1019,-0.1072,-0.0922,-0.1097,-0.1161,-0.1181,-0.1145,0,0,0,0,0,0,-0.0878,-0.088,-0.0864,-0.0779,-0.0745,-0.0758,-0.0799,-0.0862,-0.0822,-0.0902,-0.0876,-0.0958,-0.0917,-0.0986,-0.0888,-0.0891,-0.0981,-0.0943,-0.0941,-0.115,-0.1168,-0.1184,-0.1154,0,0,0,0,0]},{"header":{"parameterUnit":"m.s-1","parameterCategory":2,"la1":30.2991,"la2":30.254,"lo1":-89.0895,"lo2":-89.0444,"dy":0.0017,"dx":0.0017,"nx":28,"ny":28,"refTime":"2023-08-10T09:00:00:Z","depth":"4","parameterNumber":3,"parameterNumberName":"V-component_of_CURRENTS"},"data":[0,0,0,0,0,0,0,0,0,0,0,0,0,0,0,0,0,0,0,0,0,0,0,0,0,0,0,0,0,0,0,0,0,0,0,0,0,0,0,0,0,0,0,0,0,0,0,0,0,0,0,0,0,0,0,0,0,0,-0.0139,-0.0139,0,-0.0167,-0.0168,-0.0168,-0.0169,-0.0168,-0.0168,-0.0167,-0.0119,-0.0119,-0.0118,0,0,0,0,0,0,0,0,0,0,0,0,0,-0.0144,-0.0143,-0.0139,-0.0139,-0.0139,-0.0167,-0.0168,-0.0168,-0.0169,-0.0168,-0.0168,-0.0167,-0.012,-0.0119,-0.0118,0,0,0,0,0,0,0,0,0,0,0,0,0,-0.0155,-0.0143,-0.0138,-0.0141,-0.0142,-0.0167,-0.0168,-0.0169,-0.0169,-0.0168,-0.0167,-0.0167,-0.012,-0.0119,-0.0118,-0.0126,0,0,-0.0114,-0.0113,0,0,0,0,0,0,0,0,-0.0155,-0.0155,-0.0141,-0.0141,-0.0142,-0.0162,-0.0152,-0.015,-0.0169,-0.016,-0.0167,-0.0166,-0.0126,-0.0124,-0.0135,-0.0124,-0.0122,-0.0114,-0.0113,-0.0113,-0.0112,0,0,0,0,0,0,0,-0.0154,-0.0154,-0.0152,-0.0141,-0.0141,-0.0161,-0.0162,-0.0152,-0.0147,-0.0161,-0.0161,-0.0162,-0.0126,-0.0136,-0.0134,-0.0121,-0.0114,-0.0113,-0.0112,-0.0112,-0.0158,-0.016,0,0,0,0,0,0,-0.0144,-0.0153,-0.0151,-0.0152,-0.0144,-0.0162,-0.0162,-0.0158,-0.0149,-0.0147,-0.0162,-0.0161,-0.0139,-0.0135,-0.0132,-0.0152,-0.0113,-0.0111,-0.0111,-0.0156,-0.0158,-0.016,0,0,0,0,0,0,-0.0144,-0.0144,-0.015,-0.0153,-0.0154,-0.0162,-0.0157,-0.0159,-0.0165,-0.015,-0.0147,-0.0166,-0.0138,-0.0133,-0.0132,-0.015,-0.0111,-0.011,-0.0154,-0.0157,-0.0159,-0.0186,0,0,0,0,0,0,-0.0144,-0.0143,-0.0145,-0.0152,-0.0154,-0.0161,-0.0158,-0.016,-0.0166,-0.0165,-0.0152,-0.0148,-0.0137,-0.0134,-0.0131,-0.0147,-0.0109,-0.0151,-0.0155,-0.0158,-0.0182,-0.0189,-0.0195,0,0,0,0,0,-0.0144,-0.0152,-0.0145,-0.0145,-0.0153,-0.0161,-0.0164,-0.0168,-0.0167,-0.0171,-0.0171,-0.0148,-0.0156,-0.0134,-0.013,-0.0147,-0.0149,-0.0154,-0.0158,-0.018,-0.0188,-0.0195,0,0,0,0,0,0,-0.0152,-0.0152,-0.0145,-0.015,-0.0151,-0.016,-0.0174,-0.0169,-0.0176,-0.0177,-0.016,-0.0156,-0.0165,-0.0159,-0.0136,-0.0177,-0.0154,-0.0158,-0.0172,-0.0179,-0.0185,-0.0187,-0.0108,0,0,0,0,0,-0.0154,-0.0158,-0.0156,-0.0157,-0.0165,-0.0168,-0.0175,-0.0172,-0.0175,-0.0178,-0.017,-0.0174,-0.0183,-0.0181,-0.0184,-0.0196,-0.0169,-0.0212,-0.0218,-0.0223,-0.0226,-0.0202,-0.0205,-0.0175,-0.0175,-0.0174,0,0,-0.0159,-0.0156,-0.016,-0.016,-0.0168,-0.0192,-0.0171,-0.0181,-0.0202,-0.017,-0.0199,-0.0187,-0.0192,-0.0212,-0.0217,-0.0205,-0.0219,-0.0229,-0.0232,-0.0232,-0.0206,-0.0209,-0.0211,-0.0178,-0.0177,-0.0177,0,0,-0.0177,-0.0169,-0.0187,-0.0195,-0.0201,-0.0205,-0.0206,-0.0213,-0.0221,-0.0239,-0.023,-0.023,-0.0243,-0.0249,-0.0255,-0.03,-0.0251,-0.0305,-0.0333,-0.031,-0.0311,-0.0312,-0.0274,-0.0271,-0.0309,-0.0309,-0.0309,0,-0.0184,-0.0198,-0.0192,-0.0217,-0.0232,-0.0214,-0.0244,-0.0256,-0.0258,-0.0272,-0.0253,-0.0277,-0.0268,-0.0296,-0.0313,-0.0312,-0.0281,-0.0296,-0.0314,-0.0314,-0.0314,-0.0276,-0.0272,-0.0311,-0.0311,-0.0311,-0.0311,0,-0.0213,-0.0237,-0.0251,-0.0277,-0.0293,-0.0309,-0.0323,-0.0336,-0.0338,-0.0345,-0.0362,-0.0344,-0.0355,-0.0357,-0.0346,-0.0355,-0.0326,-0.0318,-0.0284,-0.0318,-0.0276,-0.0272,-0.0314,-0.0313,-0.0312,-0.0312,0,0,-0.0205,-0.0261,-0.0268,-0.0299,-0.0324,-0.034,-0.0384,-0.0415,-0.0445,-0.0435,-0.0469,-0.0468,-0.0436,-0.0442,-0.0415,-0.0393,-0.0361,-0.0354,-0.0352,-0.0298,-0.029,-0.0256,-0.0247,-0.0343,-0.0343,-0.0342,-0.0255,0,-0.0231,-0.0294,-0.031,-0.0374,-0.0416,-0.0425,-0.047,-0.0496,-0.0507,-0.0534,-0.0512,-0.0525,-0.0476,-0.0467,-0.0438,-0.0395,-0.0353,-0.0385,-0.0282,-0.0279,-0.0228,-0.0243,-0.0342,-0.0252,-0.0251,-0.025,-0.025,0,-0.0262,-0.0301,-0.037,-0.044,-0.0458,-0.0488,-0.0547,-0.0581,-0.0618,-0.0626,-0.0621,-0.0596,-0.0576,-0.0519,-0.0434,-0.0452,-0.0368,-0.0317,-0.0312,-0.0268,-0.0237,-0.0216,-0.0241,-0.0242,-0.0243,-0.0243,-0.0244,0,-0.0274,-0.0346,-0.04,-0.0423,-0.0496,-0.0527,-0.056,-0.0611,-0.0646,-0.0674,-0.0685,-0.0657,-0.0634,-0.0546,-0.0442,-0.043,-0.0337,-0.0313,-0.0195,-0.0191,-0.0232,-0.0232,-0.0226,-0.0226,-0.0227,-0.0227,-0.0227,0,-0.0302,-0.0353,-0.041,-0.0442,-0.0509,-0.0551,-0.062,-0.0649,-0.0694,-0.0734,-0.0716,-0.0708,-0.0633,-0.0572,-0.0466,-0.0326,-0.0351,-0.0196,-0.0169,-0.0246,-0.0249,-0.0227,-0.0229,-0.0224,-0.0224,-0.0225,-0.0225,0,-0.0327,-0.0362,-0.043,-0.0497,-0.0523,-0.0571,-0.0653,-0.0709,-0.0731,-0.0776,-0.0779,-0.0751,-0.0669,-0.0585,-0.0454,-0.0351,-0.0232,-0.0164,-0.0256,-0.0236,-0.0087,-0.0091,-0.0023,-0.0021,-0.0019,-0.0018,-0.0017,0,-0.0352,-0.0387,-0.0459,-0.0504,-0.0537,-0.0614,-0.068,-0.0728,-0.0768,-0.0784,-0.0794,-0.074,-0.0703,-0.0507,-0.0408,-0.0228,-0.0179,-0.0106,-0.0086,-0.0088,-0.0068,-0.0074,-0.008,-0.0014,-0.0014,-0.0014,-0.0013,0,-0.0396,-0.0409,-0.0455,-0.0535,-0.0603,-0.0688,-0.0759,-0.0775,-0.0822,-0.0841,-0.0788,-0.0695,-0.0606,-0.0478,-0.0353,-0.0211,-0.0163,-0.0088,-0.0089,-0.007,-0.0077,-0.006,-0.0068,-0.0008,-0.0009,-0.0009,-0.0009,0,-0.0414,-0.0449,-0.0498,-0.0567,-0.0654,-0.0727,-0.0765,-0.0794,-0.0822,-0.0808,-0.0784,-0.0696,-0.0655,-0.0464,-0.0344,-0.0226,-0.0164,-0.009,-0.009,-0.0094,-0.0143,-0.0164,-0.0096,0,0,0,0,0,-0.0432,-0.0473,-0.0539,-0.0609,-0.0691,-0.074,-0.0811,-0.0838,-0.0851,-0.0811,-0.0792,-0.0702,-0.0517,-0.0444,-0.0315,-0.0302,-0.0151,-0.0141,-0.0067,0.0023,0.0016,-0.0027,0,0,0,0,0,0,-0.0452,-0.0506,-0.0536,-0.0629,-0.0681,-0.0776,-0.0817,-0.083,-0.079,-0.0781,-0.0693,-0.064,-0.0479,-0.0602,-0.0308,-0.0273,-0.0195,-0.0067,-0.0063,0.0026,0.002,0.0015,-0.0031,0,0,0,0,0]}]]